SCP
0 0 0 0 0 0 0 0 0 0 0 0 0 0 0 0 0 0 0 0 0 0
0 0 0 0 0 0 0 0 0 0 0 0 0 0 0 0 0 0 0 0 0 0
0 0 0 0 0 0 0 0 0 0 0 0 0 0 0 0 0 0 0 0 0 0
0 0 0 0 0 0 0 0 0 0 0 0 0 0 0 0 0 0 0 0 0 0
0 0 0 0 0 0 0 0 0 0 0 0 0 0 0 0 0 0 0 0 0 0
0 0 0 0 0 0 0 0 0 0 0 0 0 0 0 0 0 0 0 0 0 0
0 0 0 0 0 0 0 0 0 0 0 0 0 0 0 0 0 0 0 0 0 0
0 0 0 0 0 0 0 0 0 0 0 0 0 0 0 0 0 0 0 0 0 0
0 0 0 0 0 0 0 0 0 0 0 0 0 0 0 0 0 0 0 0 0 0
0 0 0 0 0 0 0 0 0 0 0 0 0 0 0 0 0 0 0 0 0 0
0 0 0 0 0 0 0 0 0 0 0 0 0 0 0 0 0 0 0 0 0 0
0 0 0 0 0 0 0 0 0 0 0 0 0 0 0 0 0 0 0 0 0 0
0 0 0 0 0 0 0 0 0 0 0 0 0 0 0 0 0 0 0 0 0 0
0 0 0 0 0 0 0 0 0 0 0 0 0 0 0 0 0 0 0 0 0 0
Wind_Speed_500mb
90 88 85 88 90 89 88 83 75 72 72 76 79 81 83 84 84 83 82 84 85 85
82 86 87 88 90 92 90 89 84 78 70 66 71 75 77 81 80 81 83 84 84 87
67 72 77 80 83 89 88 87 85 81 74 64 59 62 66 68 68 70 72 73 76 78
58 60 64 69 73 75 74 75 79 77 71 64 57 55 59 59 58 63 63 63 64 66
54 50 51 55 57 58 61 61 66 65 65 61 58 57 59 58 58 57 59 59 60 64
45 45 45 46 47 49 53 54 58 56 59 58 57 55 55 54 55 59 59 59 61 58
27 33 39 41 44 47 49 52 55 56 57 58 56 55 56 58 59 58 56 56 61 60
18 24 30 37 43 47 49 51 53 54 56 57 60 61 62 61 58 56 56 64 58 62
27 29 32 35 37 39 41 44 47 50 53 55 57 60 59 58 55 47 58 63 59 50
37 36 38 40 41 42 42 43 46 49 51 54 54 53 50 51 52 52 50 43 45 52
45 41 41 42 42 43 42 41 40 40 40 43 45 47 44 41 41 43 45 50 50 50
48 41 41 42 41 41 40 37 35 33 31 29 28 30 32 35 37 41 44 45 41 37
47 41 42 42 40 38 36 33 30 28 28 28 29 27 24 23 23 24 23 20 20 22
47 42 43 41 37 34 32 32 31 31 31 31 27 25 23 19 18 19 21 21 19 16
Wind_Direction_500mb
251 251 249 251 253 256 259 263 264 262 258 256 255 254 256 257 258 259 260 260 263 265
251 250 249 249 251 254 258 262 264 264 263 260 256 255 256 258 261 262 262 264 265 265
254 253 253 253 252 254 257 257 260 264 264 263 261 258 256 257 259 260 261 262 263 265
258 256 252 252 253 255 257 254 255 257 260 262 261 260 257 257 258 258 259 262 266 268
256 254 249 249 251 252 254 256 258 259 258 255 254 255 256 257 259 259 262 264 266 269
249 249 248 247 247 246 250 250 253 253 254 251 250 250 252 254 256 257 260 263 265 267
250 248 247 245 242 241 241 243 243 242 242 244 246 247 248 250 252 256 257 262 258 264
258 258 258 256 252 248 245 243 244 243 243 244 246 248 248 250 253 255 257 261 262 263
266 266 265 263 260 257 253 248 246 244 244 247 248 249 250 250 246 251 251 257 254 267
274 273 270 267 263 258 254 250 248 247 247 245 246 243 245 249 253 253 253 250 253 258
271 270 269 263 258 254 249 245 241 239 238 238 240 244 246 246 246 244 245 247 251 256
263 261 263 260 254 249 244 241 238 234 231 228 228 231 238 241 243 244 245 249 249 252
260 260 259 254 250 244 236 229 223 222 224 227 227 228 228 229 233 233 234 236 245 257
253 252 250 246 239 233 222 207 202 205 212 217 217 216 212 210 226 222 224 234 240 255
Wind_Speed_850mb
90 88 85 88 90 89 88 83 75 72 72 76 79 81 83 84 84 83 82 84 85 85
82 86 87 88 90 92 90 89 84 78 70 66 71 75 77 81 80 81 83 84 84 87
67 72 77 80 83 89 88 87 85 81 74 64 59 62 66 68 68 70 72 73 76 78
58 60 64 69 73 75 74 75 79 77 71 64 57 55 59 59 58 63 63 63 64 66
54 50 51 55 57 58 61 61 66 65 65 61 58 57 59 58 58 57 59 59 60 64
45 45 45 46 47 49 53 54 58 56 59 58 57 55 55 54 55 59 59 59 61 58
27 33 39 41 44 47 49 52 55 56 57 58 56 55 56 58 59 58 56 56 61 60
18 24 30 37 43 47 49 51 53 54 56 57 60 61 62 61 58 56 56 64 58 62
27 29 32 35 37 39 41 44 47 50 53 55 57 60 59 58 55 47 58 63 59 50
37 36 38 40 41 42 42 43 46 49 51 54 54 53 50 51 52 52 50 43 45 52
45 41 41 42 42 43 42 41 40 40 40 43 45 47 44 41 41 43 45 50 50 50
48 41 41 42 41 41 40 37 35 33 31 29 28 30 32 35 37 41 44 45 41 37
47 41 42 42 40 38 36 33 30 28 28 28 29 27 24 23 23 24 23 20 20 22
47 42 43 41 37 34 32 32 31 31 31 31 27 25 23 19 18 19 21 21 19 16
Wind_Direction_850mb
251 251 249 251 253 256 259 263 264 262 258 256 255 254 256 257 258 259 260 260 263 265
251 250 249 249 251 254 258 262 264 264 263 260 256 255 256 258 261 262 262 264 265 265
254 253 253 253 252 254 257 257 260 264 264 263 261 258 256 257 259 260 261 262 263 265
258 256 252 252 253 255 257 254 255 257 260 262 261 260 257 257 258 258 259 262 266 268
256 254 249 249 251 252 254 256 258 259 258 255 254 255 256 257 259 259 262 264 266 269
249 249 248 247 247 246 250 250 253 253 254 251 250 250 252 254 256 257 260 263 265 267
250 248 247 245 242 241 241 243 243 242 242 244 246 247 248 250 252 256 257 262 258 264
258 258 258 256 252 248 245 243 244 243 243 244 246 248 248 250 253 255 257 261 262 263
266 266 265 263 260 257 253 248 246 244 244 247 248 249 250 250 246 251 251 257 254 267
274 273 270 267 263 258 254 250 248 247 247 245 246 243 245 249 253 253 253 250 253 258
271 270 269 263 258 254 249 245 241 239 238 238 240 244 246 246 246 244 245 247 251 256
263 261 263 260 254 249 244 241 238 234 231 228 228 231 238 241 243 244 245 249 249 252
260 260 259 254 250 244 236 229 223 222 224 227 227 228 228 229 233 233 234 236 245 257
253 252 250 246 239 233 222 207 202 205 212 217 217 216 212 210 226 222 224 234 240 255